Regional Weather Roundup
Issued by NWS

Home | Current Version | Previous Version | Graphics & Text | Print | Product List | Glossary Off
Versions: 1 2 3 4 5 6 7 8 9 10 11 12 13 14 15 16 17 18 19 20 21 22 23 24 25 26 27 28 29 30 31 32 33 34 35 36 37 38 39 40 41 42 43 44 45 46 47 48 49 50

000
ASUS43 KTOP 310959
RWRKS

WEATHER ROUNDUP FOR KANSAS
NATIONAL WEATHER SERVICE GOODLAND KS
500 AM CDT THU JUL 31 2014

NOTE:  "FAIR" INDICATES FEW OR NO CLOUDS BELOW 12,000 FEET WITH NO
SIGNIFICANT WEATHER AND/OR OBSTRUCTIONS TO VISIBILITY.

KSZ001>006-013>018-027>032-041>047-311100-
NORTHWEST KANSAS

CITY           SKY/WX    TMP DP  RH WIND       PRES   REMARKS
GOODLAND       PTCLDY    57  54  89 W7        30.23F
HAYS           CLEAR     57  52  82 CALM      30.16S
HILL CITY      CLEAR     56  52  86 W3        30.16F
RUSSELL        CLEAR     58  56  93 SW6       30.14S
$$

KSZ061>065-074>080-084>089-311100-
SOUTHWEST KANSAS

CITY           SKY/WX    TMP DP  RH WIND       PRES   REMARKS
DODGE CITY     CLEAR     59  55  87 W6        30.18F
ELKHART          N/A     58  56  94 NW3         N/A
GARDEN CITY    CLEAR     57  55  93 W6        30.20S
GREAT BEND     CLEAR     59  55  88 W3        30.15S
LIBERAL        CLEAR     57  52  82 NW5       30.22S
$$

KSZ066>073-081>083-090>101-311100-
SOUTHEAST KANSAS

CITY           SKY/WX    TMP DP  RH WIND       PRES   REMARKS
CHANUTE        FOG       61  60  97 CALM      30.10S VSB 1/4
COFFEYVILLE    CLOUDY    66  64  93 NE6       30.08S
HUTCHINSON     FOG       56  54  93 W3        30.13S VSB 1/4
NEWTON         PTCLDY    57  52  82 N3        30.15S
PARSONS        PTCLDY    63  61  93 CALM      30.11R FOG
WICHITA INTL   PTCLDY    60  58  92 NW8       30.12R FOG
WICHITA JABRA  PTCLDY    58  58 100 N7        30.11S
WICHITA MCCONL CLEAR     61  61 100 N6        30.11F
WINFIELD       PTCLDY    62  62 100 N6        30.11S FOG
$$

KSZ007>012-019>026-033>040-048>060-102>105-311100-
NORTHEAST KANSAS

CITY           SKY/WX    TMP DP  RH WIND       PRES   REMARKS
CONCORDIA      PTCLDY    56  54  93 CALM      30.13S
EMPORIA        MOCLDY    58  58 100 W5        30.11S
LAWRENCE       PTCLDY    55  52  89 NW6       30.11R
MANHATTAN      PTCLDY    56  55  97 CALM      30.12S
OLATHE IND     CLEAR     59  58  96 NW3       30.11R
OLATHE EXE     CLEAR     63  59  87 N3        30.10R
SALINA         CLEAR     58  54  86 CALM      30.13F
TOPEKA BILLARD PTCLDY    57  55  93 CALM      30.11S
TOPEKA FORBES  PTCLDY    57  55  93 N3        30.11S
$$



USA.gov is the U.S. government's official web portal to all federal, state and local government web resources and services.